sat.trackr.live / text

‹ back to catalog

LEMUR-2-STARLIGHT

NORAD 66783 · 2025-276DY

PAYLOAD ACTIVE UNKNOWN

§ Identity

Operator
Country
US
Launch date
2025-11-28
Launch site
AFWTR
Launch vehicle
Mass (kg)
RCS (m²)

Purposes: earth_obs

External: N2YO · Heavens-Above · Gunter

§ Orbital elements

Epoch: 2026-05-25T03:19:50.113344Z

Period
96.08 min
Inclination
97.5250°
Eccentricity
0.0014510
Mean motion
14.98739682 rev/d
Perigee alt
560.7 km
Apogee alt
580.9 km
Semi-major
6,948.9 km
B*
2.9784e-4
RAAN
216.5660°
Arg perigee
200.6220°
Mean anomaly
159.4420°
Rev number
2,674

§ Raw data

LEMUR-2-STARLIGHT1 66783U 25276DY  26145.13877446  .00003535  00000+0  29784-3 0  99982 66783  97.5250 216.5660 0014510 200.6220 159.4420 14.98739682 26740

JSON: /api/v1/satellites/66783 · /tle

For live sub-satellite position, see the globe view (requires WebGL).

§ Visibility from observer

Set your observer location to see the next 7 days of passes ≥ 10°. The values pass through the URL so the page stays shareable.

No JS? Fill the form by hand. The geolocation button needs JavaScript.